Flag for Germany Weather past 2 weeks in Gorleben, Lower Saxony, Germany

Now
39 °F

Overcast.


Feels Like: 33 °F
Forecast: 35 / 40 °F
Wind: 8 mph from Northwest

Location: Marnitz

Current Time: Jan 27, 2015 at 11:41:37 AM

Latest Report: Jan 27, 2015 at 11:00 AM


Visibility: 19 mi

Pressure: 29.91 "Hg

Humidity: 82%

Dew point: 34 °F

Location of GorlebenLocation

Historic Weather in Gorleben — Graph

°F

Gorleben temperature yesterday

Maximum temperature yesterday: 40 °F (at 11:00 PM)
Minimum temperature yesterday: 34 °F (at 7:00 AM)
Average temperature yesterday: 36 °F

Past Weeks' High & Low Weather Summary

 TemperatureHumidityPressure
High50 °F (Jan 13, 1:00 PM)100% (Jan 20, 10:00 PM)30.32 "Hg (Jan 20, 10:00 PM)
Low25 °F (Jan 22, 12:00 AM)63% (Jan 16, 2:00 PM)29.44 "Hg (Jan 15, 6:00 PM)
Average35 °F89%29.93 "Hg
* Reported Jan 13 9:00 AM — Jan 27 10:00 AM, Gorleben, Weather by CustomWeather, © 2014

Note: Actual official high and low records may vary slightly from our data, if they occured in-between our weather recording intervals... More about our weather records

Advertising

Gorleben weather history for previous 24 hours

 ConditionsComfort  
Time TempWeatherWind HumidityBarometerVisibility
10:00 AM
Jan 27
38 °FOvercast.7 mph87%29.90 "Hg17 mi
9:00 AM37 °FOvercast.8 mph90%29.89 "Hg17 mi
8:00 AM37 °FOvercast.9 mph89%29.86 "Hg19 mi
7:00 AM38 °FOvercast.8 mph89%29.86 "Hg22 mi
6:00 AM38 °FLow clouds.7 mph91%29.85 "Hg22 mi
5:00 AM38 °FDrizzle. Overcast.6 mph93%29.85 "Hg22 mi
4:00 AM38 °FLight freezing rain. Low clouds.7 mph94%29.84 "Hg8 mi
3:00 AM38 °FLow clouds.7 mph93%29.84 "Hg25 mi
2:00 AM38 °FLow clouds.7 mph94%29.83 "Hg22 mi
1:00 AM38 °FDrizzle. Low clouds.8 mph94%29.83 "Hg25 mi
12:00 AM39 °FDrizzle. Low clouds.6 mph92%29.82 "Hg22 mi
11:00 PM
Jan 26
40 °FLight freezing rain. Low clouds.6 mph96%29.80 "Hg5 mi
10:00 PM40 °FLow clouds.5 mph98%29.80 "Hg7 mi
9:00 PM38 °FLight rain. Low clouds.6 mph99%29.81 "Hg4 mi
8:00 PM38 °FLight rain. Low clouds.5 mph97%29.83 "Hg4 mi
7:00 PM38 °FLight rain. Low clouds.6 mph97%29.85 "Hg3 mi
6:00 PM38 °FDrizzle. Low clouds.5 mph97%29.87 "Hg1 mi
5:00 PM38 °FLight freezing rain. Low clouds.6 mph97%29.89 "Hg3 mi
4:00 PM38 °FLight rain. Low clouds.6 mph97%29.92 "Hg3 mi
3:00 PM37 °FLight freezing rain. Low clouds.6 mph97%29.95 "Hg2 mi
2:00 PM37 °FLight freezing rain. Low clouds.5 mph97%29.99 "Hg2 mi
1:00 PM37 °FLow clouds.5 mph93%30.02 "Hg5 mi
12:00 PM37 °FFog.5 mph95%30.06 "Hg3 mi
11:00 AM36 °FFog.5 mph97%30.10 "Hg3 mi
Weather by CustomWeather, © 2014

See weather overviewHow to use our weather pages